This is the latest recevied weather packets stored in our database for station/object UR7D-12. If no packets are shown the sender has not sent any weather packets the latest 10 day(s).
| Time | Temp. | Humidity | Pressure | Rain* | Wind** | Luminosity | Snow |
|---|---|---|---|---|---|---|---|
| 1777317291 | 10° C | 42% | 993.8 hPa | 0 mm | - | - | - |
| 1777316991 | 10° C | 42% | 993.9 hPa | 0 mm | - | - | - |
| 1777316687 | 10.56° C | 42% | 993.9 hPa | 0 mm | - | - | - |
| 1777316390 | 10° C | 42% | 994 hPa | 0 mm | - | - | - |
| 1777316087 | 10° C | 43% | 993.9 hPa | 0 mm | - | - | - |
| 1777315790 | 10.56° C | 39% | 994 hPa | 0 mm | - | - | - |
| 1777315187 | 11.11° C | 39% | 994 hPa | 0 mm | - | - | - |
| 1777314588 | 11.11° C | 40% | 994 hPa | 0 mm | - | - | - |
| 1777314286 | 11.11° C | 41% | 994 hPa | 0 mm | - | - | - |
| 1777313986 | 11.11° C | 41% | 994 hPa | 0 mm | - | - | - |
| 1777313688 | 11.11° C | 42% | 993.9 hPa | 0 mm | - | - | - |
| 1777313085 | 11.11° C | 43% | 993.8 hPa | 0 mm | - | - | - |
| 1777312785 | 11.11° C | 43% | 993.7 hPa | 0 mm | - | - | - |
| 1777312485 | 11.67° C | 40% | 993.6 hPa | 0 mm | - | - | - |
| 1777312184 | 11.67° C | 38% | 993.4 hPa | 0 mm | - | - | - |
| 1777311884 | 12.22° C | 37% | 993.3 hPa | 0 mm | - | - | - |
| 1777311285 | 12.22° C | 36% | 993.5 hPa | 0 mm | - | - | - |
| 1777310983 | 12.22° C | 37% | 993.6 hPa | 0 mm | - | - | - |
| 1777310383 | 12.78° C | 36% | 993.5 hPa | 0 mm | - | - | - |
| 1777310082 | 13.33° C | 36% | 993.4 hPa | 0 mm | - | - | - |
| 1777309482 | 13.33° C | 35% | 993.5 hPa | 0 mm | - | - | - |
| 1777309181 | 13.33° C | 36% | 993.5 hPa | 0 mm | - | - | - |
| 1777308581 | 13.89° C | 34% | 993.6 hPa | 0 mm | - | - | - |
| 1777308281 | 13.89° C | 33% | 993.6 hPa | 0 mm | - | - | - |
| 1777307980 | 13.89° C | 33% | 993.6 hPa | 0 mm | - | - | - |
* Rain latest hour (hover to see other rain measurements)
** Current wind speed in m/s (hover to see current wind gust speed)